[[{"header":{"parameterUnit":"m.s-1","parameterCategory":1,"la1":30.2991,"la2":30.254,"lo1":-89.0895,"lo2":-89.0444,"dy":0.0017,"dx":0.0017,"nx":28,"ny":28,"refTime":"2025-03-07T03:00:00:Z","depth":0,"parameterNumber":2,"parameterNumberName":"U-component_of_WINDS"},"data":[0,0,0,0,0,0,0,0,0,0,0,0,0,0,0,0,0,0,0,0,0,0,0,0,0,0,0,0,0,0,0,0,0,0,0,0,0,0,0,0,0,0,0,0,0,0,0,0,0,0,0,0,0,0,0,0,0,0,-4.0197,-4.0196,0,-4.0137,-4.0137,-4.0136,-4.0003,-4.0,-3.9998,-3.9995,-3.9935,-3.9936,-3.9937,0,0,0,0,0,0,0,0,0,0,0,0,0,-4.0199,-4.0199,-4.0197,-4.0196,-4.0195,-4.0137,-4.0137,-4.0136,-4.0004,-4.0,-3.9997,-3.9994,-3.9935,-3.9936,-3.9937,0,0,0,0,0,0,0,0,0,0,0,0,0,-4.0175,-4.02,-4.0197,-4.0122,-4.0115,-4.0138,-4.0136,-4.0135,-4.0004,-4.0,-3.9996,-3.9992,-3.9934,-3.9936,-3.9937,-4.0027,0,0,-3.9941,-3.9942,0,0,0,0,0,0,0,0,-4.0176,-4.0175,-4.0134,-4.0128,-4.0119,-4.0073,-4.0115,-4.0099,-4.0005,-4.0046,-3.9995,-3.999,-3.9984,-3.9981,-3.9979,-4.0025,-4.0022,-3.9941,-3.9942,-3.9943,-3.9943,0,0,0,0,0,0,0,-4.0178,-4.0176,-4.0173,-4.0134,-4.0125,-4.0093,-4.0085,-4.0111,-4.0039,-4.0042,-4.0033,-4.0027,-3.998,-3.9978,-3.9977,-4.0021,-3.9941,-3.9943,-3.9944,-3.9944,-4.014,-4.0145,0,0,0,0,0,0,-4.019,-4.0179,-4.0175,-4.0171,-4.0138,-4.0096,-4.0087,-4.0092,-4.0038,-4.0026,-4.0031,-4.0021,-3.9978,-3.9975,-3.9974,-4.0078,-3.9943,-3.9944,-3.9945,-4.0136,-4.0141,-4.0146,0,0,0,0,0,0,-4.0191,-4.0191,-4.0177,-4.0172,-4.0168,-4.01,-4.0107,-4.0093,-4.0092,-4.003,-4.0016,-4.0043,-3.9974,-3.9972,-4.0016,-4.0074,-3.9945,-3.9946,-4.0131,-4.0138,-4.0144,-4.0285,0,0,0,0,0,0,-4.0191,-4.0192,-4.0225,-4.0174,-4.0169,-4.0219,-4.0111,-4.0095,-4.0094,-4.0081,-4.0037,-4.0026,-3.9971,-4.0014,-4.0017,-4.0073,-3.9947,-4.0125,-4.0134,-4.0142,-4.0275,-4.0296,-4.0314,0,0,0,0,0,-4.0192,-4.0266,-4.0227,-4.0227,-4.0208,-4.0223,-4.022,-4.0155,-4.01,-4.0132,-4.0093,-4.0027,-4.0067,-4.002,-4.0022,-4.008,-4.0121,-4.0132,-4.0141,-4.0266,-4.0292,-4.0313,0,0,0,0,0,0,-4.0325,-4.0258,-4.0214,-4.0274,-4.0256,-4.02,-4.024,-4.0184,-4.018,-4.0168,-4.0089,-4.008,-4.0135,-4.0111,-4.006,-4.0166,-4.0084,-4.0095,-4.0179,-4.0202,-4.0221,-4.0225,-3.9948,0,0,0,0,0,-4.0362,-4.0378,-4.0319,-4.0378,-4.0371,-4.0308,-4.0312,-4.0264,-4.0241,-4.0232,-4.0196,-4.0177,-4.0185,-4.0192,-4.0197,-4.0272,-4.0261,-4.0313,-4.0332,-4.0348,-4.0358,-4.0398,-4.0421,-4.0179,-4.0178,-4.0178,0,0,-4.0437,-4.0402,-4.0418,-4.0404,-4.0384,-4.0405,-4.0302,-4.0327,-4.0342,-4.0236,-4.0275,-4.0249,-4.0222,-4.0283,-4.0307,-4.0265,-4.0423,-4.0361,-4.0374,-4.0375,-4.0411,-4.0434,-4.0454,-4.0185,-4.0184,-4.0183,0,0,-4.0584,-4.0559,-4.0607,-4.0589,-4.056,-4.0518,-4.053,-4.0485,-4.0463,-4.0501,-4.0423,-4.044,-4.0456,-4.0441,-4.0436,-4.0582,-4.0522,-4.0586,-4.0686,-4.0727,-4.0746,-4.0762,-4.0816,-4.0836,-4.0596,-4.0597,-4.0597,0,-4.0681,-4.0708,-4.0638,-4.0669,-4.0667,-4.0574,-4.0622,-4.0608,-4.0583,-4.0584,-4.0537,-4.0556,-4.0532,-4.0589,-4.0625,-4.0623,-4.0635,-4.059,-4.0748,-4.0764,-4.0779,-4.0829,-4.0849,-4.0605,-4.0604,-4.0603,-4.0602,0,-4.0829,-4.085,-4.0892,-4.087,-4.0872,-4.0912,-4.085,-4.0861,-4.0814,-4.0778,-4.082,-4.0787,-4.0785,-4.0795,-4.0749,-4.0846,-4.0821,-4.0763,-4.0679,-4.0811,-4.0857,-4.0876,-4.0616,-4.0613,-4.0611,-4.0609,0,0,-4.1056,-4.0998,-4.1015,-4.1005,-4.0968,-4.0983,-4.102,-4.1018,-4.1029,-4.1016,-4.1046,-4.1063,-4.101,-4.1004,-4.0956,-4.0991,-4.1112,-4.0928,-4.0927,-4.0965,-4.1219,-4.1264,-4.1287,-4.1072,-4.1076,-4.1078,-4.1222,0,-4.1195,-4.1254,-4.1194,-4.1265,-4.1285,-4.1198,-4.1231,-4.1213,-4.1181,-4.1193,-4.1157,-4.1171,-4.1099,-4.1096,-4.1127,-4.1091,-4.1162,-4.1079,-4.11,-4.1102,-4.1109,-4.131,-4.1356,-4.1493,-4.1239,-4.1242,-4.1244,0,-4.1363,-4.1359,-4.1433,-4.1395,-4.14,-4.143,-4.1425,-4.1438,-4.1417,-4.1391,-4.1387,-4.1329,-4.1364,-4.1284,-4.1332,-4.1277,-4.1283,-4.1267,-4.1271,-4.127,-4.1181,-4.1316,-4.1535,-4.1556,-4.1272,-4.1269,-4.1267,0,-4.1523,-4.1536,-4.1582,-4.1577,-4.1532,-4.1556,-4.1539,-4.1513,-4.1517,-4.1513,-4.1515,-4.1515,-4.1515,-4.1518,-4.1463,-4.1409,-4.1519,-4.1433,-4.1499,-4.1501,-4.1526,-4.1525,-4.175,-4.153,-4.1529,-4.1529,-4.1528,0,-4.1684,-4.1733,-4.1654,-4.1682,-4.1735,-4.1667,-4.1722,-4.1696,-4.1675,-4.1698,-4.1624,-4.1647,-4.1573,-4.1589,-4.1547,-4.1595,-4.1595,-4.1576,-4.1564,-4.1583,-4.1586,-4.1585,-4.1574,-4.1534,-4.1533,-4.1532,-4.1531,0,-4.187,-4.1819,-4.1864,-4.182,-4.181,-4.1851,-4.1813,-4.1839,-4.1803,-4.1834,-4.1837,-4.1781,-4.1797,-4.1743,-4.1749,-4.172,-4.1791,-4.1763,-4.1798,-4.179,-4.186,-4.1855,-4.2092,-4.2121,-4.1883,-4.1885,-4.1887,0,-4.1976,-4.2012,-4.1973,-4.1983,-4.197,-4.1987,-4.1991,-4.1927,-4.1934,-4.1915,-4.1944,-4.1953,-4.1957,-4.1987,-4.1947,-4.1953,-4.1925,-4.2008,-4.1925,-4.1943,-4.1927,-4.1926,-4.193,-4.2025,-4.2028,-4.203,-4.2032,0,-4.217,-4.2144,-4.2152,-4.2154,-4.2161,-4.2158,-4.215,-4.2163,-4.2094,-4.2107,-4.2122,-4.2126,-4.2134,-4.2145,-4.2143,-4.2125,-4.2069,-4.2059,-4.2075,-4.2094,-4.2113,-4.2105,-4.1846,-4.2053,-4.2051,-4.205,-4.2049,-4.2048,-4.232,-4.2349,-4.2326,-4.2339,-4.2327,-4.2323,-4.2345,-4.2313,-4.2325,-4.2326,-4.2288,-4.2313,-4.2293,-4.2284,-4.2274,-4.2292,-4.2254,-4.2276,-4.2282,-4.2289,-4.2301,-4.2111,-4.2291,-4.2291,-4.229,-4.229,-4.2289,0,-4.2511,-4.2493,-4.2506,-4.2498,-4.2509,-4.2455,-4.2445,-4.2458,-4.248,-4.2467,-4.2473,-4.2493,-4.2504,-4.2467,-4.2474,-4.2496,-4.247,-4.25,-4.2498,-4.2495,-4.2335,-4.2321,-4.2521,-4.2521,-4.2521,-4.2521,-4.2521,-4.2521,-4.2611,-4.2658,-4.263,-4.2671,-4.2653,-4.2676,-4.2675,-4.2672,-4.2661,-4.2686,-4.2696,-4.2672,-4.265,-4.2655,-4.2663,-4.2652,-4.2658,-4.2698,-4.2678,-4.2529,-4.2506,-4.2484,-4.2471,-4.2699,-4.27,-4.2837,-4.2838,-4.2839]},{"header":{"parameterUnit":"m.s-1","parameterCategory":1,"la1":30.2991,"la2":30.254,"lo1":-89.0895,"lo2":-89.0444,"dy":0.0017,"dx":0.0017,"nx":28,"ny":28,"refTime":"2025-03-07T03:00:00:Z","depth":0,"parameterNumber":3,"parameterNumberName":"V-component_of_WINDS"},"data":[0,0,0,0,0,0,0,0,0,0,0,0,0,0,0,0,0,0,0,0,0,0,0,0,0,0,0,0,0,0,0,0,0,0,0,0,0,0,0,0,0,0,0,0,0,0,0,0,0,0,0,0,0,0,0,0,0,0,1.3816,1.3817,0,1.3852,1.3852,1.3853,1.3892,1.3893,1.3893,1.3894,1.3926,1.3927,1.3927,0,0,0,0,0,0,0,0,0,0,0,0,0,1.378,1.378,1.3816,1.3817,1.3817,1.3852,1.3852,1.3853,1.3892,1.3893,1.3893,1.3894,1.3926,1.3927,1.3927,0,0,0,0,0,0,0,0,0,0,0,0,0,1.3804,1.3781,1.3816,1.3841,1.3844,1.3852,1.3852,1.3853,1.3892,1.3893,1.3894,1.3894,1.3926,1.3927,1.3927,1.3913,0,0,1.3929,1.3929,0,0,0,0,0,0,0,0,1.3802,1.3805,1.3837,1.3839,1.3842,1.3869,1.3852,1.3873,1.3892,1.3873,1.3894,1.3895,1.3906,1.3908,1.3913,1.3914,1.3916,1.3929,1.3929,1.3929,1.3929,0,0,0,0,0,0,0,1.38,1.3803,1.383,1.3837,1.3841,1.385,1.3854,1.3856,1.3884,1.3875,1.3878,1.3882,1.3908,1.3912,1.3914,1.3916,1.3929,1.3929,1.3929,1.393,1.3909,1.3909,0,0,0,0,0,0,1.3795,1.3802,1.3829,1.3831,1.3824,1.385,1.3854,1.3859,1.3884,1.3889,1.3881,1.3884,1.3911,1.3913,1.3915,1.3902,1.3929,1.393,1.393,1.391,1.3909,1.3908,0,0,0,0,0,0,1.3795,1.3798,1.3828,1.3818,1.3822,1.3849,1.3854,1.3859,1.3864,1.3889,1.3894,1.3881,1.3912,1.3915,1.3914,1.3903,1.393,1.393,1.3911,1.391,1.3909,1.3873,0,0,0,0,0,0,1.3793,1.3797,1.3792,1.3817,1.3823,1.3826,1.3854,1.3859,1.3865,1.3869,1.389,1.3894,1.3913,1.3913,1.3914,1.3904,1.3931,1.3912,1.3911,1.3909,1.3875,1.387,1.3866,0,0,0,0,0,1.3792,1.3779,1.3792,1.3795,1.3817,1.3825,1.3828,1.3851,1.3864,1.386,1.3876,1.3894,1.3904,1.3912,1.3914,1.3904,1.3913,1.3911,1.3909,1.3877,1.3871,1.3867,0,0,0,0,0,0,1.375,1.3783,1.3797,1.3792,1.3806,1.3832,1.3826,1.3844,1.3853,1.3856,1.3882,1.3887,1.3883,1.3894,1.3902,1.3893,1.3911,1.391,1.3886,1.3881,1.3877,1.3874,1.3931,0,0,0,0,0,1.3741,1.3746,1.3774,1.3767,1.3773,1.3799,1.3803,1.382,1.3834,1.384,1.3856,1.3869,1.3875,1.3879,1.3886,1.3877,1.3882,1.3871,1.3867,1.3863,1.3861,1.3859,1.3855,1.3902,1.3902,1.3902,0,0,1.3721,1.3739,1.374,1.3759,1.3771,1.3776,1.3803,1.3806,1.3809,1.384,1.3841,1.3853,1.3869,1.3865,1.3864,1.3873,1.385,1.3861,1.3858,1.3858,1.3857,1.3852,1.3848,1.3901,1.3901,1.3901,0,0,1.3686,1.3701,1.3697,1.371,1.373,1.3747,1.3746,1.377,1.3781,1.3782,1.3806,1.381,1.382,1.3831,1.3838,1.381,1.3827,1.3812,1.3789,1.3787,1.3783,1.378,1.3771,1.3767,1.381,1.381,1.381,0,1.3658,1.3667,1.3693,1.3695,1.3703,1.3733,1.373,1.3741,1.3761,1.3765,1.3777,1.3792,1.3804,1.3804,1.3797,1.3801,1.3801,1.3809,1.3782,1.3779,1.3776,1.3768,1.3764,1.3808,1.3808,1.3808,1.3809,0,1.3632,1.3637,1.3632,1.3653,1.3661,1.366,1.3686,1.369,1.3706,1.3722,1.3724,1.3741,1.3753,1.3754,1.3769,1.3756,1.3762,1.3777,1.3796,1.3769,1.3762,1.3759,1.3805,1.3806,1.3806,1.3807,0,0,1.3571,1.3609,1.3606,1.3617,1.3642,1.3646,1.3647,1.3661,1.3664,1.3677,1.3679,1.3688,1.3703,1.3711,1.3727,1.3725,1.3704,1.3741,1.3742,1.3734,1.3691,1.368,1.3676,1.3715,1.3715,1.3714,1.369,0,1.3541,1.3546,1.3571,1.3569,1.3575,1.3604,1.3606,1.3621,1.3636,1.3643,1.366,1.3666,1.3685,1.369,1.3689,1.3706,1.3695,1.3708,1.3717,1.3717,1.3712,1.3672,1.3659,1.3636,1.3687,1.3687,1.3687,0,1.3507,1.3521,1.3519,1.3546,1.3549,1.355,1.3565,1.3571,1.3589,1.3601,1.3611,1.3631,1.3634,1.3652,1.3656,1.3665,1.367,1.3679,1.3679,1.368,1.37,1.3672,1.3628,1.3625,1.3682,1.3682,1.3683,0,1.3463,1.3481,1.3483,1.3492,1.3522,1.3523,1.3535,1.3554,1.3562,1.3575,1.358,1.3592,1.3599,1.3608,1.363,1.3642,1.3633,1.3652,1.3642,1.3641,1.3638,1.3638,1.3595,1.3641,1.3641,1.3641,1.3641,0,1.3428,1.3426,1.3465,1.3466,1.3465,1.3494,1.3492,1.3507,1.3524,1.3529,1.3555,1.3558,1.3588,1.3595,1.3613,1.3614,1.3617,1.3626,1.3631,1.3624,1.3623,1.3627,1.3629,1.364,1.3641,1.3641,1.3641,0,1.3379,1.3405,1.3409,1.3439,1.3447,1.3445,1.347,1.3472,1.349,1.3496,1.3499,1.3527,1.3536,1.356,1.3575,1.3587,1.3584,1.3593,1.3578,1.3581,1.357,1.3571,1.3528,1.3524,1.3573,1.3572,1.3572,0,1.3354,1.3354,1.3385,1.3391,1.3403,1.3411,1.342,1.3448,1.3455,1.3478,1.3477,1.3489,1.35,1.3514,1.3535,1.3548,1.3557,1.3541,1.3559,1.3552,1.3557,1.3557,1.3557,1.3537,1.3536,1.3536,1.3535,0,1.3309,1.3322,1.3333,1.335,1.3359,1.3373,1.3388,1.3391,1.3423,1.343,1.3442,1.345,1.3468,1.3479,1.3495,1.3508,1.3527,1.353,1.3528,1.3521,1.3513,1.3518,1.3568,1.353,1.3531,1.3531,1.3531,1.3532,1.3271,1.3273,1.3296,1.3308,1.3323,1.3337,1.3342,1.3361,1.3372,1.3389,1.3405,1.3415,1.3434,1.3458,1.3469,1.3477,1.3487,1.3484,1.3483,1.3482,1.348,1.3512,1.348,1.348,1.348,1.348,1.3481,0,1.3228,1.3244,1.3256,1.3277,1.3287,1.3306,1.3325,1.3331,1.334,1.3357,1.3369,1.3382,1.3394,1.3417,1.3431,1.3433,1.3443,1.3436,1.3436,1.3439,1.347,1.347,1.3429,1.3429,1.3429,1.3429,1.3429,1.3429,1.3206,1.3211,1.3227,1.3239,1.3256,1.3267,1.3276,1.3289,1.3304,1.3318,1.3329,1.3345,1.3365,1.3381,1.3393,1.3399,1.3403,1.3394,1.3403,1.3432,1.3436,1.3441,1.3442,1.3395,1.3395,1.3372,1.3371,1.3371]}]]